Location: ??????
(55.7522°N, 37.6156°E)
Time: 17:27:47
(UTC+00:00)

ALOS 2 - Pass Details

Date: 14 June 2025
Orbit: 630 x 632 km, 97.9° (Epoch: 13 July)

Event Time Altitude Azimuth Distance (km) Brightness Sun altitude
Exits shadow 19:58:51 - 137° (SE) 2,073 4.7 -8.6°
Reaches altitude 10° 19:58:59 10° 137° (SE) 2,016 4.6 -8.6°
Maximum altitude 20:03:09 44° 66° (ENE) 886 3.4 -8.8°
Drops below altitude 10° 20:07:20 10° 355° (N) 2,029 6.7 -9.0°
Sets 20:09:37 0° 349° (NNW) 2,942 8.3 -9.1°
